Probability
0 0 0 0 0 0 0 0 0 0 3 3 6 10 10 19 3 3 13 19 32 52 61 74 81 74 77 74 71 68 68 71 71 68 71 71 61 58 58 65 65 68 65 65 71 71 71 71 77
0 0 0 0 0 0 0 0 0 0 3 3 6 16 19 19 26 39 29 32 42 48 52 65 81 74 77 71 68 71 74 71 68 74 74 58 55 65 65 65 68 65 71 71 65 68 65 65 65
0 0 0 0 0 0 0 0 0 0 0 3 6 13 23 32 45 35 42 39 48 48 52 68 81 77 74 81 74 74 71 74 68 74 68 55 55 52 55 55 58 58 65 68 61 58 55 68 68
0 0 0 0 0 0 0 0 0 0 3 6 16 23 26 29 35 32 42 32 39 48 58 68 81 77 81 81 74 74 74 77 74 74 65 55 55 55 55 55 55 55 58 58 55 52 61 61 65
0 3 0 0 0 0 0 0 0 3 3 6 16 29 29 32 39 42 39 35 39 48 61 74 84 81 77 74 74 74 71 74 74 74 71 61 55 58 58 58 52 55 55 55 52 55 65 68 58
0 0 0 0 0 0 0 0 0 0 3 3 13 23 29 26 42 45 32 42 35 48 61 74 81 81 84 77 77 77 74 71 68 68 68 61 58 52 55 48 48 48 48 52 48 52 55 61 61
0 0 0 0 0 0 0 0 0 0 0 3 6 19 26 26 23 35 45 48 45 48 58 61 77 81 87 87 81 71 71 74 71 71 68 65 55 52 52 52 48 45 42 39 35 48 45 58 55
0 0 0 0 0 0 0 0 3 3 3 6 10 19 26 13 29 35 42 39 42 48 55 61 58 61 65 68 74 74 71 71 65 61 65 55 48 48 48 48 45 39 45 42 42 42 48 48 45
0 0 0 0 0 3 3 3 3 6 10 10 16 26 29 26 32 39 39 35 35 39 42 55 55 55 55 55 65 68 68 68 55 48 52 42 32 29 42 48 48 45 45 52 52 52 55 52 39
0 0 0 0 3 3 3 3 3 6 10 13 23 29 32 29 35 42 35 35 39 32 32 35 39 35 39 39 48 45 42 35 29 29 32 23 13 10 13 32 45 52 52 55 52 52 48 29 23
0 0 0 3 3 3 3 3 3 3 6 13 26 32 32 35 35 39 42 42 39 32 35 32 26 29 29 32 32 26 26 26 26 26 13 13 10 6 6 6 16 26 35 26 26 23 16 13 6
0 0 0 3 3 3 3 6 6 6 6 13 26 35 32 29 29 32 35 42 42 39 42 29 26 23 29 23 26 16 19 19 23 13 10 6 3 3 3 3 3 3 10 10 10 10 10 6 6
3 3 3 0 0 0 0 3 3 10 10 16 26 32 29 26 19 19 32 35 48 45 39 26 26 19 26 16 19 16 13 16 10 10 6 3 3 3 3 3 3 3 3 6 6 6 6 3 3
0 0 0 0 0 0 3 3 6 6 13 13 19 23 26 23 26 23 26 35 35 35 29 23 23 23 19 13 13 16 13 13 10 10 6 3 3 3 3 3 3 3 3 6 6 6 3 0 0
0 0 0 0 0 0 0 3 6 6 13 13 23 23 29 23 23 26 19 29 32 26 23 23 26 23 23 19 16 19 19 19 16 13 3 3 3 3 3 3 3 3 3 3 6 6 0 3 3
0 0 0 0 0 0 0 0 6 6 10 16 23 23 26 29 26 23 19 23 29 23 23 23 29 23 26 16 23 16 10 13 13 6 10 6 3 3 6 6 6 3 3 3 3 3 3 3 0
0 0 0 0 0 0 0 0 3 6 6 13 13 19 23 29 29 26 23 13 16 19 23 23 23 23 23 23 23 19 16 10 10 10 10 6 3 6 6 6 6 3 6 3 3 3 3 0 0
0 0 0 0 0 0 0 0 6 6 10 10 13 16 26 29 29 32 26 16 16 13 16 19 29 26 23 19 19 19 23 13 13 13 10 10 10 13 10 6 6 3 6 6 3 3 0 3 3
0 0 0 0 0 0 0 3 6 6 6 6 10 16 26 29 35 26 26 29 19 23 23 19 23 23 23 23 23 23 23 23 19 10 10 10 10 13 6 10 6 6 6 6 3 6 6 6 3
0 0 0 0 0 0 0 0 6 6 10 6 6 19 26 26 32 39 29 29 29 23 23 26 23 23 23 23 23 23 19 19 13 16 13 13 13 10 10 6 6 6 6 6 6 6 6 3 3
0 0 0 0 0 0 0 0 3 3 6 6 10 13 19 23 32 32 29 29 29 23 26 26 23 23 23 23 26 23 13 16 16 16 16 16 16 13 10 6 6 6 6 6 6 6 3 3 0
0 0 0 0 0 0 0 0 3 3 0 10 13 13 19 23 29 32 32 32 26 29 29 16 23 26 26 23 23 23 23 16 16 16 13 13 16 16 16 13 10 10 6 6 6 6 3 0 0
0 0 0 0 0 0 0 0 0 3 6 13 13 16 23 26 23 29 32 35 32 26 23 23 23 23 29 29 23 23 19 16 16 13 10 10 13 13 13 13 13 10 10 6 6 3 3 0 0
0 0 0 0 0 0 0 0 0 0 6 6 10 23 29 19 19 23 29 32 32 29 26 26 26 29 29 26 29 23 16 16 10 10 10 10 13 10 10 13 10 6 10 6 6 3 0 0 0
0 0 0 0 0 0 0 0 3 3 6 10 10 16 19 19 19 19 23 32 32 32 26 29 29 26 29 29 23 23 13 10 10 6 6 6 6 6 10 13 6 6 6 6 6 6 0 0 0
0 0 0 0 0 0 0 0 3 3 13 13 6 16 23 23 19 16 19 16 29 32 29 29 29 29 23 23 23 23 19 10 6 6 13 0 0 3 0 0 3 3 3 3 3 3 6 0 0
0 0 0 0 0 0 0 0 6 13 13 10 10 13 19 23 19 19 16 13 26 32 29 26 23 23 23 19 19 19 19 10 6 6 6 6 3 3 3 0 0 0 0 3 3 3 3 3 0
0 0 0 0 0 0 0 0 3 10 10 6 10 23 19 19 16 16 13 10 19 16 19 23 23 19 19 16 16 19 16 13 6 6 6 10 6 6 3 3 0 0 0 0 0 3 3 3 0
0 0 0 0 0 0 0 0 0 6 6 3 6 23 19 16 13 6 10 13 16 13 16 19 16 19 19 16 16 16 16 13 10 10 10 6 6 6 6 3 3 3 3 0 0 0 0 0 0
0 0 0 0 0 0 0 3 3 3 3 3 10 10 16 10 3 3 6 13 13 13 16 19 16 16 16 19 13 13 13 10 13 10 6 6 6 6 6 6 3 3 3 0 0 0 0 0 0
Height
5903 5904 5904 5905 5905 5905 5904 5903 5902 5902 5903 5902 5902 5901 5900 5900 5900 5901 5898 5895 5894 5893 5892 5891 5891 5890 5890 5889 5889 5888 5888 5888 5887 5887 5886 5886 5885 5884 5884 5884 5884 5883 5883 5883 5883 5883 5883 5883 5883
5903 5903 5904 5905 5904 5903 5904 5903 5902 5902 5902 5902 5901 5901 5900 5899 5898 5897 5896 5894 5893 5892 5891 5891 5890 5890 5889 5889 5888 5888 5887 5887 5887 5886 5886 5885 5884 5884 5883 5883 5883 5883 5882 5882 5882 5882 5882 5882 5882
5902 5902 5904 5904 5903 5903 5903 5902 5901 5901 5901 5901 5900 5900 5899 5898 5897 5896 5895 5893 5892 5892 5891 5890 5889 5889 5889 5888 5887 5887 5887 5886 5886 5885 5885 5884 5884 5883 5883 5882 5882 5882 5882 5882 5882 5881 5881 5881 5881
5901 5902 5903 5903 5902 5902 5902 5901 5900 5900 5900 5900 5899 5899 5899 5898 5896 5895 5894 5892 5891 5891 5890 5889 5889 5888 5888 5887 5887 5886 5886 5885 5885 5885 5884 5883 5883 5882 5881 5881 5881 5881 5881 5881 5881 5880 5880 5880 5880
5901 5901 5902 5901 5901 5901 5900 5900 5899 5899 5899 5899 5899 5898 5897 5897 5896 5894 5892 5891 5891 5890 5890 5889 5888 5887 5887 5886 5886 5885 5885 5884 5884 5883 5883 5882 5882 5881 5880 5880 5880 5879 5879 5880 5880 5880 5880 5880 5880
5900 5900 5900 5900 5900 5900 5900 5899 5898 5898 5899 5898 5897 5896 5896 5896 5895 5893 5891 5891 5890 5890 5889 5888 5887 5886 5886 5885 5885 5884 5884 5883 5883 5882 5882 5881 5880 5880 5879 5879 5879 5878 5878 5879 5879 5879 5879 5879 5879
5899 5899 5898 5898 5898 5898 5899 5898 5898 5898 5897 5897 5896 5895 5894 5894 5893 5892 5891 5890 5889 5888 5888 5887 5886 5885 5885 5884 5884 5883 5883 5882 5882 5881 5880 5880 5879 5878 5878 5878 5877 5877 5878 5878 5878 5878 5878 5878 5878
5896 5897 5897 5896 5896 5897 5897 5896 5896 5896 5895 5894 5894 5893 5892 5892 5892 5891 5890 5889 5888 5887 5886 5886 5885 5884 5884 5883 5883 5882 5882 5881 5880 5880 5879 5878 5878 5877 5877 5877 5876 5876 5876 5876 5876 5876 5877 5876 5876
5894 5896 5894 5894 5895 5895 5895 5895 5895 5895 5894 5893 5892 5891 5891 5890 5890 5890 5889 5887 5886 5886 5885 5884 5884 5883 5883 5882 5881 5881 5880 5880 5879 5878 5877 5877 5877 5876 5875 5875 5875 5874 5874 5874 5874 5875 5875 5875 5875
5892 5893 5892 5892 5892 5893 5893 5893 5893 5893 5892 5891 5890 5889 5889 5888 5888 5888 5886 5885 5884 5884 5883 5882 5883 5882 5881 5881 5880 5879 5879 5878 5878 5877 5876 5875 5875 5874 5874 5874 5873 5873 5872 5872 5872 5873 5873 5873 5873
5889 5890 5890 5890 5890 5890 5890 5891 5891 5890 5889 5889 5888 5888 5887 5886 5886 5886 5885 5884 5883 5882 5882 5881 5881 5880 5880 5880 5879 5878 5877 5877 5876 5876 5875 5874 5873 5873 5872 5872 5872 5871 5870 5870 5870 5870 5871 5871 5872
5886 5887 5887 5887 5887 5887 5888 5888 5888 5888 5888 5887 5886 5886 5885 5885 5884 5883 5882 5882 5882 5881 5881 5880 5879 5879 5878 5878 5878 5877 5876 5875 5875 5874 5874 5873 5872 5872 5871 5871 5870 5870 5869 5868 5868 5868 5868 5869 5869
5883 5884 5883 5884 5884 5884 5885 5885 5885 5884 5884 5884 5883 5884 5883 5883 5882 5881 5880 5879 5879 5879 5879 5878 5878 5877 5877 5876 5876 5875 5874 5874 5873 5872 5872 5871 5870 5870 5869 5869 5868 5867 5867 5866 5866 5866 5866 5866 5866
5880 5880 5880 5880 5881 5881 5881 5882 5881 5882 5881 5880 5880 5881 5881 5880 5880 5878 5878 5877 5876 5876 5876 5875 5875 5875 5874 5874 5874 5873 5872 5872 5871 5871 5869 5868 5868 5868 5867 5867 5866 5865 5865 5864 5864 5864 5864 5864 5864
5875 5876 5877 5877 5878 5878 5878 5879 5879 5879 5878 5878 5878 5878 5878 5877 5877 5876 5876 5874 5874 5873 5873 5873 5872 5872 5871 5871 5871 5871 5870 5869 5869 5868 5867 5866 5866 5865 5865 5864 5864 5863 5863 5862 5861 5861 5861 5861 5862
5871 5872 5873 5874 5875 5875 5876 5876 5876 5875 5875 5875 5875 5875 5874 5874 5873 5873 5873 5872 5872 5871 5870 5870 5870 5869 5869 5868 5868 5868 5867 5867 5866 5865 5864 5864 5863 5863 5862 5862 5861 5861 5860 5859 5859 5859 5859 5859 5859
5866 5868 5869 5870 5871 5870 5871 5871 5872 5871 5871 5871 5871 5871 5871 5870 5870 5870 5870 5870 5869 5868 5868 5867 5867 5866 5865 5865 5865 5864 5864 5864 5863 5862 5861 5861 5860 5860 5859 5859 5858 5858 5857 5857 5856 5856 5857 5856 5856
5863 5864 5864 5865 5866 5866 5866 5866 5867 5867 5867 5867 5868 5868 5868 5867 5867 5867 5866 5866 5866 5865 5864 5864 5863 5863 5862 5862 5862 5861 5860 5860 5859 5859 5858 5858 5857 5857 5856 5855 5855 5854 5854 5854 5854 5854 5854 5853 5853
5858 5858 5859 5860 5861 5862 5862 5861 5862 5862 5863 5863 5864 5864 5864 5864 5864 5863 5863 5863 5862 5862 5861 5860 5860 5859 5859 5858 5858 5857 5856 5856 5855 5855 5854 5854 5853 5853 5852 5852 5851 5851 5851 5850 5850 5850 5850 5850 5850
5853 5853 5854 5856 5856 5856 5856 5857 5857 5857 5857 5858 5859 5859 5860 5859 5859 5860 5860 5859 5859 5858 5857 5857 5856 5856 5855 5854 5854 5854 5853 5852 5851 5851 5850 5850 5850 5849 5848 5848 5847 5847 5847 5847 5846 5846 5846 5846 5846
5848 5849 5850 5851 5851 5851 5851 5851 5852 5851 5852 5853 5854 5855 5855 5855 5855 5856 5856 5855 5855 5854 5853 5853 5853 5852 5851 5851 5851 5850 5849 5848 5847 5847 5846 5846 5845 5845 5844 5844 5843 5843 5842 5842 5842 5842 5842 5842 5842
5843 5845 5845 5846 5846 5846 5848 5846 5848 5847 5848 5849 5850 5850 5851 5851 5851 5851 5851 5851 5850 5850 5849 5849 5849 5848 5847 5847 5847 5846 5845 5844 5844 5843 5842 5841 5841 5841 5840 5839 5839 5839 5838 5838 5838 5838 5837 5837 5837
5839 5840 5841 5841 5841 5841 5842 5841 5843 5842 5843 5844 5845 5845 5846 5847 5847 5847 5846 5846 5846 5845 5845 5845 5844 5844 5843 5843 5843 5842 5841 5840 5840 5839 5838 5837 5837 5836 5835 5835 5835 5834 5834 5833 5833 5833 5833 5832 5833
5834 5835 5835 5835 5835 5835 5837 5836 5836 5836 5838 5838 5839 5840 5840 5841 5841 5842 5841 5841 5841 5841 5840 5840 5840 5839 5839 5838 5838 5837 5837 5836 5835 5834 5833 5833 5832 5831 5831 5830 5830 5829 5829 5828 5828 5828 5827 5827 5827
5828 5829 5829 5829 5829 5830 5832 5830 5831 5832 5833 5833 5834 5835 5835 5835 5836 5836 5836 5836 5835 5836 5836 5835 5835 5834 5834 5834 5833 5832 5832 5831 5830 5829 5828 5828 5827 5826 5826 5825 5825 5824 5824 5823 5823 5822 5822 5822 5822
5823 5824 5824 5824 5825 5826 5826 5825 5827 5828 5828 5828 5828 5829 5830 5830 5830 5830 5830 5830 5830 5830 5830 5830 5830 5830 5829 5829 5828 5827 5826 5825 5824 5824 5823 5822 5822 5821 5821 5820 5820 5819 5818 5817 5817 5817 5816 5816 5816
5817 5818 5819 5820 5820 5820 5820 5821 5822 5822 5822 5822 5823 5824 5825 5825 5825 5825 5825 5825 5825 5825 5825 5825 5825 5824 5824 5823 5822 5821 5820 5819 5819 5817 5817 5816 5816 5816 5815 5815 5814 5813 5813 5812 5811 5811 5810 5810 5810
5812 5813 5814 5813 5813 5814 5815 5816 5817 5818 5817 5817 5818 5819 5820 5820 5820 5820 5820 5820 5819 5820 5820 5820 5820 5819 5818 5817 5816 5815 5814 5814 5813 5812 5811 5810 5810 5810 5809 5809 5808 5808 5807 5806 5805 5805 5804 5804 5804
5807 5807 5807 5807 5808 5808 5809 5812 5812 5812 5813 5813 5813 5814 5814 5815 5815 5816 5815 5815 5814 5814 5814 5814 5814 5813 5812 5812 5810 5810 5809 5808 5808 5807 5806 5805 5805 5804 5803 5803 5803 5802 5801 5800 5800 5799 5799 5798 5799
5801 5801 5801 5802 5802 5803 5803 5808 5807 5807 5807 5807 5808 5808 5808 5809 5810 5810 5810 5809 5808 5808 5808 5809 5808 5807 5807 5806 5806 5804 5804 5803 5802 5802 5801 5800 5799 5798 5798 5797 5797 5796 5796 5795 5794 5794 5793 5793 5793
Wind_Speed
6 6 5 4 3 3 3 4 4 5 6 7 8 9 10 11 10 10 9 9 9 8 8 7 5 5 5 5 5 5 6 6 5 6 5 5 5 5 5 5 5 5 5 5 5 5 5 5 6
7 6 5 4 3 1 1 3 4 5 7 7 8 8 9 9 10 10 9 9 9 8 8 7 6 5 5 6 6 6 6 6 6 5 5 5 5 5 5 5 5 5 5 6 5 5 5 6 6
7 6 6 4 3 1 1 1 4 6 7 8 9 9 9 9 9 9 9 9 8 8 7 7 5 5 5 6 6 6 6 6 6 6 5 5 5 6 5 5 6 5 5 5 5 6 5 6 6
7 7 6 4 3 2 2 2 4 6 8 9 10 10 10 10 10 10 9 8 8 8 7 6 5 5 6 6 6 6 5 5 6 6 5 5 6 5 5 5 5 5 5 6 6 6 6 6 6
8 7 6 4 3 3 3 4 4 8 9 10 11 11 10 10 10 10 10 9 8 8 7 6 5 5 6 6 6 6 5 5 6 6 7 7 7 6 6 5 6 6 5 6 6 6 6 6 5
8 8 7 5 3 5 5 5 6 8 9 10 11 11 11 10 10 10 9 9 8 8 8 7 5 6 6 6 6 6 5 5 6 7 7 7 7 7 7 6 6 5 5 5 6 6 5 6 5
9 8 7 6 5 5 5 7 8 10 10 11 11 11 12 12 11 9 9 9 9 9 7 6 6 6 6 6 6 6 6 6 6 7 7 7 8 7 6 6 7 6 6 6 6 6 5 6 6
10 10 8 7 7 7 8 10 10 10 11 12 12 12 14 13 12 10 9 9 9 8 7 7 6 5 6 6 6 6 6 7 7 7 7 7 8 7 6 6 6 6 7 7 8 7 7 7 6
12 10 9 9 9 9 9 11 11 11 12 12 13 13 14 14 12 10 9 10 10 8 8 7 6 5 5 5 5 6 6 7 7 7 7 7 6 6 6 7 7 7 7 8 8 8 8 8 7
13 11 10 10 11 10 11 12 13 11 12 13 13 14 14 14 12 10 9 9 9 9 9 7 7 6 6 6 6 6 7 7 7 7 7 7 6 6 6 7 8 8 8 8 8 9 9 8 7
14 12 12 12 12 12 12 11 13 12 12 15 14 14 14 14 12 11 11 11 10 10 9 8 8 7 7 7 6 6 7 7 6 7 7 7 7 6 6 7 7 7 8 8 8 9 9 9 8
15 14 14 14 14 13 12 11 13 14 13 14 14 15 15 15 13 13 13 13 12 10 9 9 8 8 8 8 7 7 7 7 7 7 7 7 8 7 7 7 7 7 7 7 8 8 8 9 9
17 15 16 17 16 14 13 13 14 15 14 13 15 15 14 14 13 13 14 14 13 11 10 9 9 8 8 9 8 8 8 7 8 8 8 8 8 8 7 7 7 7 7 6 7 7 7 8 9
18 18 17 16 15 15 15 14 15 16 16 16 15 16 15 14 14 13 14 14 13 12 11 9 10 9 9 10 9 9 9 9 9 9 9 9 9 8 8 8 7 7 7 7 6 7 7 7 9
19 18 17 17 17 16 16 15 14 15 16 17 17 17 15 15 14 14 13 13 13 13 11 10 10 11 10 9 9 9 9 9 10 10 10 10 9 9 9 8 8 8 8 8 7 8 8 8 9
19 18 17 17 18 16 17 16 14 16 17 16 16 16 16 14 14 14 13 14 13 13 12 12 11 11 11 10 10 10 10 10 10 10 11 10 10 10 10 10 9 9 9 9 8 8 8 9 9
20 18 18 18 18 17 17 17 16 16 16 15 15 16 16 15 15 15 15 14 14 14 13 13 12 12 12 11 12 11 11 11 11 11 11 12 11 11 11 11 11 11 10 10 9 9 9 10 10
20 19 20 19 18 18 19 19 18 18 17 16 17 17 16 16 16 16 16 15 15 14 13 13 12 12 12 12 12 12 13 13 13 12 12 13 12 12 12 12 12 12 12 11 10 11 11 11 11
20 20 20 18 18 19 20 19 19 20 19 19 18 17 17 17 18 17 16 15 16 15 14 13 14 14 13 13 13 14 14 14 14 13 13 13 13 13 14 14 13 13 13 12 12 12 12 12 11
20 20 19 19 20 21 21 21 21 21 21 19 17 17 17 16 17 16 16 16 16 16 15 14 14 15 14 14 14 14 15 15 15 14 14 14 14 14 15 15 15 14 14 14 13 13 13 13 13
21 19 19 19 20 20 20 20 20 20 21 19 17 17 17 16 17 17 18 18 17 17 16 15 15 15 15 14 14 14 15 15 15 15 15 15 15 15 15 15 15 15 14 14 14 14 14 14 14
20 19 19 19 19 19 19 19 18 19 20 20 19 18 17 18 18 18 18 19 19 18 17 16 15 15 15 15 15 15 15 15 15 15 15 15 15 15 16 17 16 16 16 15 15 15 15 15 15
19 19 19 19 20 20 20 21 18 19 19 19 18 18 19 19 18 18 19 19 19 19 18 17 16 16 16 16 16 16 15 15 16 16 16 16 16 16 17 17 18 18 17 17 17 17 17 16 16
19 20 20 20 21 21 19 21 19 18 18 19 19 18 18 18 18 18 19 19 19 18 17 17 17 17 17 16 16 16 16 16 17 17 18 17 16 17 17 18 18 19 18 18 18 18 18 18 18
20 21 22 22 22 21 18 21 19 17 18 19 18 18 17 17 18 18 19 19 18 18 18 18 18 17 17 17 17 17 18 18 18 19 19 18 17 17 17 17 17 18 18 18 19 19 19 19 19
21 22 23 23 23 21 19 21 19 18 18 19 19 18 18 18 18 17 18 18 18 18 18 18 18 18 17 18 19 19 20 20 20 20 19 18 18 18 17 18 18 18 19 19 20 20 20 20 20
21 23 23 23 23 23 22 21 19 18 18 17 18 19 18 17 17 17 17 17 17 17 17 17 18 18 18 19 19 20 20 20 20 20 19 19 19 19 19 19 20 20 19 20 21 21 20 20 20
22 22 23 24 24 24 24 22 21 19 19 19 19 19 19 18 17 16 17 17 17 17 17 17 18 18 18 19 19 19 19 20 20 19 19 18 18 19 20 20 20 20 20 20 20 19 19 20 19
22 23 24 25 25 25 25 22 21 20 19 21 20 20 19 19 19 18 18 17 19 18 18 18 18 18 18 19 19 19 19 19 19 19 19 19 20 20 20 20 20 20 20 20 19 19 19 19 20
22 23 24 26 26 25 25 23 20 20 21 20 20 20 20 20 19 19 20 20 20 19 19 18 18 18 18 19 19 19 18 18 19 19 19 19 20 20 20 20 20 20 20 20 19 19 19 18 18
Wind_Direction
157 158 158 156 160 146 90 62 19 354 349 348 346 340 338 339 338 341 341 339 340 339 337 332 328 328 328 328 327 322 317 312 310 307 305 302 297 293 291 274 261 260 256 254 255 254 240 237 226
172 173 176 176 188 167 107 33 14 356 345 342 339 336 336 332 335 341 339 343 344 341 337 335 323 320 321 322 319 317 313 310 306 305 300 299 302 294 279 277 264 260 260 258 254 253 248 240 234
185 187 189 194 199 251 297 355 6 347 338 337 333 331 334 332 332 339 343 346 347 341 334 332 324 321 319 318 315 315 312 310 305 303 297 298 297 292 287 274 267 259 256 263 257 250 248 239 234
199 198 198 204 214 238 298 314 330 331 332 330 328 327 332 332 334 335 339 342 342 338 335 327 320 319 316 317 314 309 309 310 307 304 304 300 300 295 287 284 273 259 254 255 253 245 242 237 233
215 212 213 213 229 249 290 288 302 317 324 322 321 323 327 331 331 331 335 337 335 332 333 322 313 308 309 314 319 314 308 307 306 308 304 304 303 298 293 283 273 262 259 253 246 246 250 239 234
223 223 224 222 247 278 294 296 307 308 314 312 312 317 324 326 331 331 333 333 329 326 330 329 317 309 306 308 320 317 311 309 306 307 307 306 305 298 287 278 275 265 253 242 242 249 246 235 241
228 227 231 227 242 263 279 282 289 295 301 306 311 318 322 324 329 333 329 325 324 324 324 331 323 318 314 311 315 316 305 303 303 305 307 305 304 302 291 285 266 264 260 255 249 247 242 245 246
230 229 229 231 246 260 269 275 283 292 297 302 310 323 321 323 325 323 322 323 323 323 321 319 319 319 317 316 317 312 308 306 304 303 305 306 306 302 294 287 274 268 268 265 260 255 254 258 255
231 231 231 239 253 263 267 273 281 289 297 303 313 319 316 315 323 323 318 319 319 318 313 309 308 310 311 313 316 311 306 305 306 305 307 306 305 299 295 288 281 277 271 266 264 260 259 263 262
235 232 237 243 255 263 268 274 278 285 293 300 311 316 314 313 312 318 318 319 317 315 314 312 303 299 302 308 311 311 310 306 304 302 302 303 302 300 299 293 289 284 274 268 264 260 257 259 262
235 237 240 241 250 262 273 278 280 283 290 297 304 312 311 310 307 310 313 316 314 311 313 309 302 295 296 301 305 310 314 311 310 304 302 303 302 298 296 299 297 288 279 272 267 261 255 257 261
238 239 243 243 245 253 264 273 276 278 284 291 296 303 308 309 306 306 308 310 312 307 303 299 297 293 292 295 300 303 306 308 311 309 307 303 305 303 299 298 299 295 288 280 276 269 265 263 260
242 240 242 247 247 251 256 264 272 273 274 280 290 300 304 305 303 302 304 307 309 306 303 294 288 284 286 289 289 295 298 299 300 302 304 303 303 303 302 299 297 292 291 289 286 277 271 266 258
241 243 244 248 249 250 256 262 266 270 275 280 286 292 295 298 297 295 302 306 306 304 302 294 285 282 281 284 286 289 293 294 291 294 300 298 292 290 294 292 294 295 290 283 281 276 268 265 257
244 246 244 248 249 251 257 260 264 268 273 276 281 286 292 295 292 293 300 306 305 303 301 291 285 283 283 284 288 287 287 289 290 291 294 295 290 286 288 290 291 290 290 284 279 277 270 263 256
246 247 249 249 250 254 259 261 259 266 271 273 278 286 291 293 291 291 296 301 304 301 297 292 288 286 286 287 291 287 284 287 289 291 290 290 288 287 285 284 284 283 283 283 275 272 270 266 261
247 250 252 252 252 253 255 258 259 266 269 268 276 284 286 286 288 290 291 295 299 299 295 291 289 286 284 286 289 288 286 287 288 289 287 285 284 282 287 284 280 277 279 278 272 267 266 265 265
248 252 253 255 252 253 256 258 257 260 266 269 271 276 280 282 284 287 290 292 296 298 294 290 287 284 284 284 285 289 289 288 286 285 284 281 280 281 285 285 280 276 273 272 270 267 264 266 267
248 249 251 253 252 253 257 259 261 262 263 266 269 271 273 276 278 282 287 291 293 295 295 290 287 285 283 283 285 288 289 286 284 282 281 281 280 281 282 282 280 276 270 268 269 268 265 265 267
246 249 251 251 253 255 259 259 263 260 260 265 266 270 272 274 274 278 282 287 289 289 289 288 286 283 282 282 284 286 287 286 282 279 280 282 281 280 282 281 280 278 272 269 269 269 266 263 265
247 251 253 255 256 256 261 260 259 258 260 261 264 264 268 272 270 274 280 283 284 283 283 282 283 281 281 282 284 284 284 284 281 277 277 278 279 280 280 280 279 279 275 272 270 268 267 265 265
247 251 254 256 259 255 256 258 255 261 262 264 267 267 268 269 266 270 276 280 280 279 279 280 281 282 281 280 281 281 282 282 280 276 275 278 281 280 278 277 276 276 274 272 271 270 267 265 265
247 251 253 255 257 254 252 258 257 258 261 264 266 268 267 263 264 268 273 275 277 278 276 278 281 280 277 276 278 280 280 281 279 277 277 279 278 278 279 277 276 276 274 270 270 269 267 265 264
246 248 250 252 254 255 258 263 261 260 264 263 262 266 267 260 261 266 272 273 274 274 275 278 278 275 274 275 277 279 280 279 277 277 277 277 276 277 278 278 276 275 274 270 268 267 267 266 265
245 248 252 252 255 258 261 262 263 267 268 269 270 270 266 264 262 265 269 272 272 273 274 276 275 273 273 274 277 279 279 278 277 277 277 274 274 275 274 276 277 275 273 270 268 268 267 266 265
246 249 253 257 259 260 259 264 267 267 269 270 270 270 266 269 265 264 265 270 272 273 274 274 274 274 275 276 276 277 278 279 279 276 274 272 273 274 272 273 275 277 275 272 270 267 266 265 262
246 249 253 256 259 261 260 263 262 263 266 266 266 268 270 269 268 266 266 270 272 273 275 275 275 276 277 277 278 277 278 279 280 278 274 273 272 272 272 273 275 276 276 274 272 268 264 263 262
248 251 250 253 257 260 261 262 264 263 265 269 267 267 269 270 272 272 270 272 273 272 274 276 277 278 279 280 280 277 277 280 281 277 277 277 275 273 273 273 275 277 276 274 271 270 266 263 261
248 248 250 254 257 260 263 262 265 268 268 267 268 266 266 266 269 273 273 272 270 269 271 274 277 279 280 282 281 278 279 280 281 279 279 277 276 277 278 276 275 275 274 273 271 271 269 268 263
249 250 250 251 255 257 260 261 264 268 270 267 266 264 265 265 266 268 272 272 271 269 271 273 277 279 281 282 279 278 278 279 279 280 281 280 278 277 276 276 275 276 275 272 271 269 267 267 263